Flag for Kazakhstan Weather past 2 weeks in Astana, Kazakhstan

Now
59 °F

Broken clouds.


Feels Like: 55 °F
Forecast: 44 / 58 °F
Wind: 26 mph from Southwest

Location: Astana

Current Time: Apr 18, 2015 at 2:54:47 PM

Latest Report: Apr 18, 2015 at 2:30 PM


Visibility: N/A

Pressure: 29.80 "Hg

Humidity: 48%

Dew point: 39 °F

Location of AstanaLocation

Historic Weather in Astana — Graph

°F

Astana temperature yesterday

Maximum temperature yesterday: 54 °F (at 1:30 PM)
Minimum temperature yesterday: 30 °F (at 4:30 AM)
Average temperature yesterday: 42 °F

Past Weeks' High & Low Weather Summary

 TemperatureHumidityPressure
High61 °F (Apr 11, 3:00 PM)100% (Apr 8, 1:30 AM)30.42 "Hg (Apr 8, 1:30 AM)
Low10 °F (Apr 4, 4:30 AM)37% (Apr 14, 3:00 PM)29.62 "Hg (Apr 15, 5:30 PM)
Average36 °F80%30.10 "Hg
* Reported Apr 3 2:00 PM — Apr 18 2:00 PM, Astana, Weather by CustomWeather, © 2015

Note: Actual official high and low records may vary slightly from our data, if they occured in-between our weather recording intervals... More about our weather records

Advertising

Astana weather history for previous 24 hours

 ConditionsComfort  
Time TempWeatherWind HumidityBarometerVisibility
2:00 PM
Sat, Apr 18
59 °FBroken clouds.29 mph48%29.80 "HgN/A
1:30 PM59 °FPartly sunny.29 mph45%29.83 "HgN/A
1:00 PM59 °FPartly sunny.26 mph45%29.83 "HgN/A
12:30 PM57 °FPartly sunny.26 mph48%29.86 "HgN/A
12:00 PM57 °FPartly sunny.29 mph44%29.86 "HgN/A
11:30 AM57 °FPartly sunny.26 mph44%29.86 "HgN/A
11:00 AM55 °FPartly sunny.24 mph47%29.86 "HgN/A
10:30 AM54 °FSunny.22 mph51%29.89 "Hg10 mi
10:00 AM52 °FSunny.17 mph58%29.89 "Hg10 mi
9:00 AM48 °FSunny.15 mph66%29.92 "Hg10 mi
8:30 AM46 °FSunny.13 mph71%29.92 "Hg10 mi
8:00 AM43 °FSunny.10 mph81%29.92 "Hg10 mi
7:30 AM41 °FSunny.8 mph87%29.92 "Hg10 mi
7:00 AM39 °FClear.8 mph93%29.92 "Hg10 mi
6:30 AM37 °FClear.6 mph93%29.92 "Hg10 mi
6:00 AM41 °FClear.8 mph87%29.92 "Hg10 mi
5:30 AM41 °FClear.6 mph87%29.92 "Hg10 mi
5:00 AM39 °FPassing clouds.3 mph93%29.92 "HgN/A
4:30 AM37 °FClear.6 mph93%29.92 "Hg10 mi
4:00 AM37 °FClear.1 mph93%29.92 "Hg10 mi
3:30 AM37 °FClear.3 mph93%29.95 "Hg10 mi
3:00 AM39 °FClear.8 mph93%29.95 "Hg10 mi
2:30 AM39 °FClear.8 mph93%29.95 "Hg10 mi
2:00 AM39 °FClear.8 mph93%29.95 "Hg10 mi
1:30 AM39 °FClear.6 mph93%29.95 "Hg10 mi
1:00 AM39 °FClear.8 mph93%29.98 "Hg10 mi
12:30 AM37 °FClear.3 mph93%29.98 "Hg10 mi
12:00 AM36 °FClear.3 mph93%29.98 "Hg10 mi
11:30 PM
Fri, Apr 17
39 °FPassing clouds.3 mph81%29.98 "HgN/A
11:00 PM39 °FPassing clouds.3 mph87%29.98 "HgN/A
10:30 PM39 °FPassing clouds.3 mph81%29.98 "Hg6 mi
10:00 PM37 °FPassing clouds.6 mph81%29.98 "HgN/A
9:30 PM41 °FPassing clouds.6 mph81%29.98 "HgN/A
9:00 PM39 °FPartly sunny.8 mph81%30.01 "HgN/A
8:30 PM43 °FPartly sunny.8 mph71%29.98 "HgN/A
8:00 PM45 °FSunny.6 mph71%30.01 "Hg10 mi
7:30 PM48 °FSunny.6 mph62%30.01 "Hg10 mi
7:00 PM52 °FSunny.8 mph50%30.01 "Hg10 mi
6:30 PM52 °FSunny.8 mph54%30.01 "Hg10 mi
6:00 PM52 °FOvercast.13 mph58%30.04 "HgN/A
5:30 PM52 °FMore clouds than sun.15 mph50%30.04 "HgN/A
5:00 PM52 °FMore clouds than sun.15 mph54%30.04 "HgN/A
4:30 PM54 °FMore clouds than sun.13 mph47%30.04 "HgN/A
4:00 PM54 °FBroken clouds.13 mph47%30.04 "HgN/A
3:30 PM54 °FBroken clouds.15 mph51%30.04 "HgN/A
3:00 PM52 °FSprinkles. Broken clouds.15 mph50%30.04 "HgN/A
2:30 PM54 °FPartly sunny.15 mph51%30.07 "HgN/A
2:00 PM52 °FPartly sunny.15 mph50%30.07 "HgN/A
Weather by CustomWeather, © 2015

See weather overviewHow to use our weather pages